Regional Weather Roundup
Issued by NWS Goodland, KS

Home | Current Version | Previous Version | Graphics & Text | Print | Product List | Glossary On
Versions: 1 2 3 4 5 6 7 8 9 10 11 12 13 14 15 16 17 18 19 20 21 22 23 24 25 26 27 28 29 30 31 32 33 34 35 36 37 38 39 40 41 42 43 44 45 46 47 48 49 50
000
ASUS43 KGLD 270308
RWRGLD

GOODLAND FORECAST AREA HOURLY WEATHER ROUNDUP
NATIONAL WEATHER SERVICE GOODLAND KS
900 PM MDT TUE AUG 26 2014

...OFFICIAL OBSERVATIONS...

CITY           SKY/WX    TMP DP  RH WIND       PRES   REMARKS
GOODLAND KS    TSTM      67  64  90 SW16      30.18R
HILL CITY KS   MOCLDY    76  65  68 E6        30.09R
IMPERIAL NEB   MOCLDY    70  64  81 E6        30.12S
MCCOOK NEB     CLOUDY    73  67  81 E9        30.10R
AKRON CO       CLOUDY    69  63  81 E7        30.18R
BURLINGTON CO  RAIN      64  58  80 S13       30.20R
LIMON CO       CLOUDY    65  60  84 SW7       30.23R
$$

...UNOFFICIAL OBSERVATIONS...

CITY           SKY/WX    TMP DP  RH WIND       PRES   REMARKS
COLBY KS       CLEAR     75  66  73 E7        30.13R
GOVE KS          N/A     77  32  19 CALM        N/A
NORTON KS      PTCLDY    73  61  64 E3        30.09
SHARON SPRINGS   N/A     67  64  89 CALM        N/A
WAKEENEY KS      N/A     76  61  60 MISG        N/A
KIT CARSON CO    N/A     67  60  79 MISG        N/A
YUMA CO          N/A     69  63  81 CALM        N/A
$$



USA.gov is the U.S. government's official web portal to all federal, state and local government web resources and services.